ATLAS 5 CENTAUR DEB, 43982

Orbit data source: Space-Track

ATLAS 5 CENTAUR DEB, 43982 is space debris in HEO originally from a launch on Wed, 17 Sep 2014 UTC launched from the Air Force Eastern Test Range (AFETR). Debris objects in space refer to the collection of defunct objects orbiting the Earth. Examples of debris include non-operational satellites, rocket bodies, and fragments generated from explosions, collisions, or faulty payload assembly.

Loading next visibility...
Identifier
43982, 2014-055AM
Orbit
HEO
Country
Flag of USUS
Related business
Flag of USUnited Launch Alliance/Lockheed Martin (US)
Manufacturer
Unknown
Mission
Spacecraft
Bus & Motor
Unknown
Mass
Unknown
Launch date (UTC)
2014-09-17 (11 years ago)
Launch vehicle
Unknown
Launch site
Air Force Eastern Test Range (AFETR)
Object type
Payload
Rocket body
Debris
Shape & HBR
Unknown shape, 1.1 m
Radar Cross Section
RCS unknown

Expand to show TLE details & history
Last TLE update: 1 day ago

TLE from 1 day ago
0 ATLAS 5 CENTAUR DEB
1 43982U 14055AM  26037.09874275 -.00000020  00000-0  00000+0 0  9993
2 43982  19.2041 203.7323 4720289  61.7989 337.7352  1.75472826 47516
Epoch: 2026-02-06T02:22Z
TLE epoch observation values (Epoch: 2026-02-06T02:22:11.373Z)
Latitude
0.00002°
Longitude
31.85083°
Altitude
12,095.281 km
Speed
5.425 km/s
True Right ascension
13h 34m 33s
True Declination
0° 00' 00"
Sunlit
Object was in daylight at epoch
Visualization orbit readout
Latitude
Unknown
Longitude
Unknown
Altitude
Unknown
Speed
Unknown
Apparent Right ascension
Unknown
Apparent Declination
Unknown
Sunlit
N/A
Visualization observer readout
Local Sidereal Time
04:38:45
Azimuth
Unknown
Elevation
Unknown
Doppler factor
Unknown
Orbital elements
Apogee altitude
36,365.644 km
Perigee altitude
8,952.731 km
Semi-major axis
29,037.325 km
Eccentricity
0.47203
Inclination
19.2041°
RAAN
203.7323°
Arg. of periapsis
61.7989°
True anomaly
298.18478°
Mean anomaly
337.7352°
Eccentric anomaly
320.55081°
Mean motion
0.43864 °/min
Orbital period
820.72 mins
BSTAR
0
Loading maneuver chart data...
Computing Atmospheric mass density...

Documentation

Showing up to 5 results
|